• în Republica Moldova
  • Lista ţărilor
  • Pe 7 zile
  • Temperatura apei
  • Hartă satelitară
  • Meteo pe hartă
  • Widget-uri
  • user-avatar
    Intrare

    Meteo pe oră la Nachiczewan

    Astăzi, 24 Aprilie, Marţi

    Timp Temperatura Precipitaţii Vânt Presiune Umiditate
    00:00 +14°C° 0 mm 1 m/s 684 mmHg 42%
    01:00 +13°C° 0 mm 1 m/s 684 mmHg 44%
    02:00 +13°C° 0 mm 1 m/s 684 mmHg 45%
    03:00 +12°C° 0 mm 1 m/s 684 mmHg 46%
    04:00 +12°C° 0 mm 1 m/s 685 mmHg 48%
    05:00 +13°C° 0 mm 1 m/s 685 mmHg 49%
    06:00 +13°C° 0 mm 1 m/s 685 mmHg 50%
    07:00 +14°C° 0 mm 1 m/s 686 mmHg 45%
    08:00 +16°C° 0 mm 1 m/s 686 mmHg 41%
    09:00 +18°C° 0 mm 1 m/s 686 mmHg 36%
    10:00 +18°C° 0 mm 2 m/s 687 mmHg 33%
    11:00 +19°C° 0 mm 2 m/s 687 mmHg 31%
    12:00 +20°C° 0 mm 2 m/s 687 mmHg 28%
    13:00 +21°C° 0 mm 2 m/s 687 mmHg 27%
    14:00 +21°C° 0 mm 3 m/s 687 mmHg 26%
    15:00 +22°C° 0 mm 3 m/s 687 mmHg 25%
    16:00 +21°C° 0 mm 2 m/s 687 mmHg 27%
    17:00 +21°C° 0 mm 2 m/s 687 mmHg 28%
    18:00 +21°C° 0 mm 2 m/s 687 mmHg 29%
    19:00 +19°C° 0 mm 2 m/s 688 mmHg 32%
    20:00 +19°C° 0 mm 1 m/s 688 mmHg 36%
    21:00 +18°C° 0 mm 1 m/s 688 mmHg 39%
    22:00 +16°C° 0 mm 1 m/s 688 mmHg 41%
    23:00 +16°C° 0 mm 1 m/s 688 mmHg 43%

    Mâine, 25 Aprilie, Miercuri

    Timp Temperatura Precipitaţii Vânt Presiune Umiditate
    00:00 +15°C° 0 mm 1 m/s 689 mmHg 45%
    01:00 +15°C° 0 mm 1 m/s 689 mmHg 46%
    02:00 +14°C° 0 mm 1 m/s 689 mmHg 47%
    03:00 +14°C° 0 mm 1 m/s 689 mmHg 48%
    04:00 +14°C° 0 mm 1 m/s 689 mmHg 48%
    05:00 +14°C° 0 mm 1 m/s 689 mmHg 48%
    06:00 +14°C° 0 mm 1 m/s 689 mmHg 49%
    07:00 +16°C° 0 mm 1 m/s 689 mmHg 43%
    08:00 +18°C° 0 mm 1 m/s 689 mmHg 38%
    09:00 +20°C° 0 mm 1 m/s 690 mmHg 33%
    10:00 +21°C° 0 mm 1 m/s 690 mmHg 31%
    11:00 +22°C° 0 mm 1 m/s 689 mmHg 28%
    12:00 +23°C° 0 mm 1 m/s 689 mmHg 26%
    13:00 +24°C° 0 mm 1 m/s 689 mmHg 25%
    14:00 +25°C° 0 mm 2 m/s 688 mmHg 24%
    15:00 +25°C° 0 mm 2 m/s 688 mmHg 22%
    16:00 +25°C° 0 mm 2 m/s 688 mmHg 24%
    17:00 +24°C° 0 mm 2 m/s 688 mmHg 25%
    18:00 +24°C° 0 mm 2 m/s 687 mmHg 26%
    19:00 +23°C° 0 mm 2 m/s 688 mmHg 30%
    20:00 +20°C° 0 mm 2 m/s 688 mmHg 35%
    21:00 +19°C° 0 mm 2 m/s 688 mmHg 39%
    22:00 +18°C° 0 mm 2 m/s 688 mmHg 41%
    23:00 +18°C° 0 mm 2 m/s 688 mmHg 44%

    Poimâine, 26 Aprilie, Joi

    Timp Temperatura Precipitaţii Vânt Presiune Umiditate
    00:00 +17°C° 0 mm 2 m/s 688 mmHg 46%
    01:00 +18°C° 0 mm 1 m/s 688 mmHg 47%
    02:00 +16°C° 0 mm 1 m/s 688 mmHg 48%
    03:00 +16°C° 0 mm 1 m/s 688 mmHg 48%
    04:00 +16°C° 0 mm 1 m/s 688 mmHg 48%
    05:00 +16°C° 0 mm 1 m/s 688 mmHg 48%
    06:00 +16°C° 0 mm 1 m/s 688 mmHg 48%
    07:00 +19°C° 0 mm 1 m/s 689 mmHg 43%
    08:00 +20°C° 0 mm 1 m/s 689 mmHg 37%
    09:00 +22°C° 0 mm 1 m/s 689 mmHg 32%
    10:00 +23°C° 0 mm 1 m/s 689 mmHg 30%
    11:00 +24°C° 0 mm 1 m/s 689 mmHg 27%
    12:00 +25°C° 0 mm 1 m/s 689 mmHg 25%
    13:00 +26°C° 0 mm 2 m/s 688 mmHg 25%
    14:00 +26°C° 0 mm 2 m/s 688 mmHg 24%
    15:00 +27°C° 0 mm 2 m/s 688 mmHg 23%
    16:00 +26°C° 0,1 mm 2 m/s 688 mmHg 25%
    17:00 +26°C° 0,1 mm 2 m/s 688 mmHg 27%
    18:00 +25°C° 0,1 mm 3 m/s 688 mmHg 29%
    19:00 +24°C° 0 mm 2 m/s 689 mmHg 32%
    20:00 +23°C° 0 mm 2 m/s 689 mmHg 36%
    21:00 +21°C° 0 mm 2 m/s 689 mmHg 40%
    22:00 +20°C° 0 mm 2 m/s 689 mmHg 43%
    23:00 +19°C° 0 mm 2 m/s 689 mmHg 47%

    27 Aprilie, Vineri

    Timp Temperatura Precipitaţii Vânt Presiune Umiditate
    00:00 +18°C° 0 mm 2 m/s 689 mmHg 50%
    01:00 +18°C° 0 mm 2 m/s 689 mmHg 52%
    02:00 +17°C° 0 mm 2 m/s 688 mmHg 53%
    03:00 +17°C° 0 mm 2 m/s 688 mmHg 55%
    04:00 +18°C° 0 mm 1 m/s 688 mmHg 54%
    05:00 +18°C° 0 mm 1 m/s 689 mmHg 54%
    06:00 +18°C° 0 mm 1 m/s 689 mmHg 54%
    07:00 +20°C° 0 mm 1 m/s 689 mmHg 48%
    08:00 +21°C° 0 mm 1 m/s 689 mmHg 43%
    09:00 +23°C° 0 mm 1 m/s 689 mmHg 38%
    10:00 +24°C° 0 mm 2 m/s 689 mmHg 35%
    11:00 +25°C° 0 mm 2 m/s 689 mmHg 32%
    12:00 +26°C° 0 mm 2 m/s 688 mmHg 30%
    13:00 +27°C° 0 mm 3 m/s 688 mmHg 29%
    14:00 +27°C° 0 mm 3 m/s 688 mmHg 28%
    15:00 +28°C° 0 mm 3 m/s 687 mmHg 28%
    16:00 +27°C° 0,1 mm 4 m/s 687 mmHg 32%
    17:00 +26°C° 0,1 mm 4 m/s 688 mmHg 36%
    18:00 +25°C° 0,1 mm 4 m/s 688 mmHg 40%
    19:00 +23°C° 0,1 mm 4 m/s 688 mmHg 44%
    20:00 +22°C° 0,1 mm 4 m/s 688 mmHg 49%
    21:00 +21°C° 0,1 mm 3 m/s 688 mmHg 53%
    22:00 +20°C° 0 mm 3 m/s 688 mmHg 56%
    23:00 +19°C° 0 mm 2 m/s 687 mmHg 59%

    28 Aprilie, Sâmbătă

    Timp Temperatura Precipitaţii Vânt Presiune Umiditate
    00:00 +19°C° 0 mm 2 m/s 687 mmHg 62%
    01:00 +18°C° 0 mm 2 m/s 687 mmHg 63%
    02:00 +19°C° 0 mm 1 m/s 687 mmHg 64%
    03:00 +19°C° 0 mm 1 m/s 686 mmHg 66%
    04:00 +19°C° 0 mm 1 m/s 686 mmHg 65%
    05:00 +19°C° 0 mm 1 m/s 686 mmHg 65%
    06:00 +19°C° 0 mm 1 m/s 686 mmHg 64%
    07:00 +20°C° 0 mm 1 m/s 686 mmHg 59%
    08:00 +21°C° 0 mm 1 m/s 687 mmHg 54%
    09:00 +22°C° 0 mm 1 m/s 687 mmHg 50%
    10:00 +23°C° 0,1 mm 2 m/s 687 mmHg 47%
    11:00 +23°C° 0,1 mm 2 m/s 687 mmHg 45%
    12:00 +24°C° 0,1 mm 2 m/s 687 mmHg 42%
    13:00 +24°C° 0,2 mm 3 m/s 686 mmHg 42%
    14:00 +24°C° 0,2 mm 3 m/s 686 mmHg 41%
    15:00 +25°C° 0,2 mm 3 m/s 686 mmHg 40%
    16:00 +24°C° 0,1 mm 3 m/s 686 mmHg 41%
    17:00 +24°C° 0,1 mm 2 m/s 686 mmHg 41%
    18:00 +24°C° 0,1 mm 2 m/s 686 mmHg 42%
    19:00 +23°C° 0,1 mm 2 m/s 687 mmHg 46%
    20:00 +21°C° 0,1 mm 2 m/s 687 mmHg 49%
    21:00 +20°C° 0,1 mm 2 m/s 687 mmHg 53%
    22:00 +20°C° 0 mm 2 m/s 687 mmHg 55%
    23:00 +19°C° 0 mm 2 m/s 687 mmHg 57%

    29 Aprilie, Duminică

    Timp Temperatura Precipitaţii Vânt Presiune Umiditate
    00:00 +19°C° 0 mm 2 m/s 687 mmHg 59%
    01:00 +19°C° 0 mm 1 m/s 687 mmHg 61%
    02:00 +19°C° 0 mm 1 m/s 686 mmHg 63%
    03:00 +18°C° 0 mm 1 m/s 686 mmHg 65%
    04:00 +18°C° 0 mm 1 m/s 686 mmHg 65%
    05:00 +18°C° 0 mm 1 m/s 687 mmHg 64%
    06:00 +17°C° 0 mm 2 m/s 687 mmHg 64%
    07:00 +19°C° 0 mm 1 m/s 687 mmHg 60%
    08:00 +20°C° 0 mm 1 m/s 687 mmHg 55%
    09:00 +21°C° 0 mm 1 m/s 687 mmHg 51%
    10:00 +22°C° 0,1 mm 1 m/s 687 mmHg 48%
    11:00 +23°C° 0,1 mm 1 m/s 687 mmHg 45%
    12:00 +24°C° 0,1 mm 1 m/s 686 mmHg 41%
    13:00 +25°C° 0,2 mm 2 m/s 686 mmHg 40%
    14:00 +25°C° 0,2 mm 2 m/s 686 mmHg 38%
    15:00 +26°C° 0,2 mm 2 m/s 686 mmHg 36%
    16:00 +25°C° 0,2 mm 2 m/s 686 mmHg 38%
    17:00 +25°C° 0,2 mm 3 m/s 686 mmHg 39%
    18:00 +25°C° 0,2 mm 3 m/s 686 mmHg 40%
    19:00 +24°C° 0,1 mm 3 m/s 686 mmHg 44%
    20:00 +21°C° 0,1 mm 2 m/s 686 mmHg 48%
    21:00 +20°C° 0,1 mm 2 m/s 686 mmHg 52%
    22:00 +20°C° 0,1 mm 2 m/s 686 mmHg 54%
    23:00 +20°C° 0,1 mm 2 m/s 686 mmHg 56%
    Arată mai mult